Location: Altavilla Irpina
(41.0000°N, 14.7833°E)
Time: 16:11:42
(UTC+00:00)

Cosmos 2221 - Pass Details

Date: 19 May 2025
Orbit: 572 x 593 km, 82.5° (Epoch: 16 June)

Event Time Altitude Azimuth Distance (km) Brightness Sun altitude
Exits shadow 20:01:13 20° 88° (E) 1,344 3.9 -16.6°
Maximum altitude 20:01:14 20° 88° (E) 1,344 3.9 -16.6°
Drops below altitude 10° 20:04:20 10° 40° (NE) 1,894 5.1 -17.0°
Sets 20:06:56 0° 24° (NNE) 2,795 6.3 -17.3°
